Preview of NWS' New Version of Forecast
This preview is not operational and should not be used for support decisions.

Regional Weather Roundup (RWR)

Issued by National Weather Service (NWS)

                            
000
ASCA42 TJSJ 251510
RWRPR 
PUERTO RICO/U.S. VIRGIN ISLANDS HOURLY WEATHER ROUNDUP
NATIONAL WEATHER SERVICE SAN JUAN PR
1100 AM AST SAT MAY 25 2019

PRZ001>002-007>008-010-251600-
PUERTO RICO
  
CITY           SKY/WX    TMP DP  RH WIND       PRES   REMARKS
SAN JUAN LMM   MOSUNNY   88  72  58 NE20      29.99S HX  94           
AGUADILLA      MOSUNNY   82  73  74 E17       30.01R                  
CEIBA          SUNNY     88  72  58 NE12      30.01S HX  94           
$$

VIZ001>002-251600-
U.S. VIRGIN ISLANDS
  
CITY           SKY/WX    TMP DP  RH WIND       PRES   REMARKS
CHARLOTTE AMA  MOSUNNY   84  72  65 SE14      29.98F                  
CHRISTIANSTED  MOSUNNY   82  72  69 E13       29.98F                  
$$

HOURLY WEATHER ROUNDUP FOR THE NEWS MEDIA
  
CITY           SKY/WX    TMP DP  RH WIND       PRES   REMARKS
ORLANDO        FAIR      83  67  58 VRB5      30.15R                  
NEW YORK       FAIR      62  53  72 S10       30.27R                  
NEWARK         PTSUNNY   66  51  58 S8        30.24S                  
CHICAGO        PTSUNNY   76  61  59 SW16G25   29.91S                  
HARTFORD       FAIR      69  45  41 N6        30.19S                  
BOSTON         FAIR      69  43  38 SE8       30.20R                  
DALLAS         MOSUNNY   80  68  66 S9G28     30.05S                  
PHILADELPHIA   PTSUNNY   67  52  58 S8        30.24F                  
LOS ANGELES    PTSUNNY   59  53  80 W7        29.91R                  
WASHINGTON DC  FAIR      73  58  59 S8        30.19S